DLH4121 EDDM-LEBB

Flight info

Callsign DLH4121
Flight time 2h 2m
Altitude 39000
Route ALG2S/26L ALG Y109 UMTEX Y100 TRA DCT LUTIX DCT BENOT DCT NEMOS DCT NINTU DCT MEBAK DCT REPSI DCT LERGA DCT MINSO DCT NARAK DCT AGN DCT DIGPO DCT ERAKI DCT PPN M601 CEGAM
Aircraft A20N/M-SDE2E3FGHIRWXY/LB1

Departure

Time 2026-05-07 12:46
Airport Munich Airport (EDDM)

Arrival

Time 2026-05-07 14:48
Airport Bilbao Airport (LEBB)
Time Latitude Longitude Altitude Speed Heading
2026-05-07 12:07 48.35490 11.79290 1475 ft 0 kts 263°
2026-05-07 12:30 48.35490 11.79301 1475 ft 2 kts 264°
2026-05-07 12:30 48.35492 11.79324 1475 ft 2 kts 263°
2026-05-07 12:30 48.35494 11.79346 1474 ft 2 kts 264°
2026-05-07 12:31 48.35496 11.79369 1474 ft 2 kts 263°
2026-05-07 12:31 48.35497 11.79385 1474 ft 0 kts 264°
2026-05-07 12:31 48.35500 11.79404 1474 ft 2 kts 243°
2026-05-07 12:31 48.35508 11.79423 1474 ft 2 kts 223°
2026-05-07 12:32 48.35520 11.79435 1474 ft 2 kts 202°
2026-05-07 12:32 48.35535 11.79440 1473 ft 2 kts 180°
2026-05-07 12:32 48.35542 11.79440 1473 ft 1 kts 169°
2026-05-07 12:32 48.35546 11.79439 1473 ft 0 kts 172°
2026-05-07 12:36 48.35544 11.79439 1473 ft 0 kts 172°
2026-05-07 12:36 48.35531 11.79442 1473 ft 3 kts 173°
2026-05-07 12:36 48.35501 11.79447 1474 ft 5 kts 171°
2026-05-07 12:36 48.35465 11.79486 1474 ft 8 kts 130°
2026-05-07 12:37 48.35408 11.79529 1474 ft 10 kts 170°
2026-05-07 12:37 48.35327 11.79543 1474 ft 12 kts 174°
2026-05-07 12:37 48.35232 11.79559 1474 ft 14 kts 173°
2026-05-07 12:37 48.35125 11.79578 1475 ft 15 kts 173°
2026-05-07 12:38 48.35034 11.79596 1475 ft 12 kts 166°
2026-05-07 12:38 48.35009 11.79614 1475 ft 2 kts 143°
2026-05-07 12:38 48.34988 11.79641 1475 ft 5 kts 139°
2026-05-07 12:38 48.34966 11.79666 1475 ft 0 kts 150°
2026-05-07 12:40 48.34965 11.79667 1475 ft 0 kts 150°
2026-05-07 12:40 48.34955 11.79672 1475 ft 2 kts 163°
2026-05-07 12:40 48.34953 11.79673 1475 ft 0 kts 164°
2026-05-07 12:41 48.34951 11.79674 1475 ft 0 kts 164°
2026-05-07 12:41 48.34949 11.79675 1475 ft 1 kts 164°
2026-05-07 12:41 48.34930 11.79682 1475 ft 3 kts 170°
2026-05-07 12:42 48.34894 11.79688 1475 ft 6 kts 175°
2026-05-07 12:42 48.34841 11.79697 1475 ft 8 kts 165°
2026-05-07 12:42 48.34808 11.79775 1475 ft 11 kts 86°
2026-05-07 12:42 48.34816 11.79904 1474 ft 13 kts 85°
2026-05-07 12:43 48.34829 11.80063 1474 ft 16 kts 83°
2026-05-07 12:43 48.34782 11.80212 1474 ft 16 kts 141°
2026-05-07 12:43 48.34671 11.80251 1474 ft 16 kts 174°
2026-05-07 12:43 48.34557 11.80272 1474 ft 16 kts 173°
2026-05-07 12:44 48.34462 11.80215 1475 ft 10 kts 252°
2026-05-07 12:44 48.34459 11.80196 1475 ft 0 kts 260°
2026-05-07 12:45 48.34448 11.80081 1475 ft 37 kts 264°
2026-05-07 12:45 48.34390 11.79318 1478 ft 107 kts 264°
2026-05-07 12:45 48.34283 11.77908 1507 ft 159 kts 266°
2026-05-07 12:45 48.34186 11.76235 2087 ft 162 kts 267°
2026-05-07 12:46 48.34070 11.74549 2793 ft 165 kts 266°
2026-05-07 12:46 48.33963 11.72883 3469 ft 167 kts 266°
2026-05-07 12:46 48.33842 11.71077 3893 ft 183 kts 265°
2026-05-07 12:46 48.33677 11.69094 4327 ft 200 kts 264°
2026-05-07 12:47 48.33492 11.66934 4772 ft 218 kts 264°
2026-05-07 12:47 48.33298 11.64612 5303 ft 233 kts 264°
2026-05-07 12:47 48.33114 11.62154 5924 ft 246 kts 264°
2026-05-07 12:47 48.32924 11.59537 6558 ft 259 kts 264°
2026-05-07 12:48 48.32728 11.56839 7451 ft 262 kts 264°
2026-05-07 12:48 48.32472 11.54175 8356 ft 264 kts 256°
2026-05-07 12:48 48.31891 11.51580 9227 ft 266 kts 250°
2026-05-07 12:48 48.31212 11.48985 10105 ft 269 kts 249°
2026-05-07 12:49 48.30529 11.46375 10776 ft 279 kts 249°
2026-05-07 12:49 48.29814 11.43580 11231 ft 296 kts 250°
2026-05-07 12:49 48.29068 11.40619 11830 ft 308 kts 250°
2026-05-07 12:49 48.28324 11.37633 12572 ft 313 kts 250°
2026-05-07 12:50 48.27560 11.34552 13351 ft 318 kts 250°
2026-05-07 12:50 48.26797 11.31460 14085 ft 322 kts 250°
2026-05-07 12:50 48.26018 11.28297 14849 ft 325 kts 250°
2026-05-07 12:50 48.25238 11.25131 15596 ft 329 kts 250°
2026-05-07 12:51 48.24441 11.21895 16322 ft 333 kts 250°
2026-05-07 12:51 48.23645 11.18664 17034 ft 337 kts 250°
2026-05-07 12:51 48.22836 11.15382 17730 ft 340 kts 250°
2026-05-07 12:51 48.22008 11.12032 18416 ft 344 kts 250°
2026-05-07 12:52 48.21173 11.08661 18917 ft 348 kts 250°
2026-05-07 12:52 48.20327 11.05250 19540 ft 353 kts 250°
2026-05-07 12:52 48.19477 11.01832 20241 ft 355 kts 250°
2026-05-07 12:52 48.18608 10.98335 20887 ft 359 kts 251°
2026-05-07 12:53 48.17737 10.94840 21498 ft 362 kts 251°
2026-05-07 12:53 48.16864 10.91338 22081 ft 366 kts 251°
2026-05-07 12:53 48.15971 10.87759 22664 ft 370 kts 251°
2026-05-07 12:53 48.15066 10.84144 23227 ft 374 kts 251°
2026-05-07 12:54 48.14148 10.80477 23792 ft 378 kts 251°
2026-05-07 12:54 48.13230 10.76816 24340 ft 381 kts 251°
2026-05-07 12:54 48.12287 10.73060 24885 ft 385 kts 251°
2026-05-07 12:54 48.11351 10.69336 25392 ft 388 kts 252°
2026-05-07 12:55 48.10399 10.65553 25919 ft 391 kts 251°
2026-05-07 12:55 48.09443 10.61768 26398 ft 394 kts 251°
2026-05-07 12:55 48.08477 10.57949 26859 ft 397 kts 251°
2026-05-07 12:55 48.07493 10.54064 27312 ft 400 kts 251°
2026-05-07 12:56 48.06513 10.50203 27753 ft 403 kts 251°
2026-05-07 12:56 48.05515 10.46279 28179 ft 406 kts 251°
2026-05-07 12:56 48.04514 10.42348 28598 ft 408 kts 251°
2026-05-07 12:56 48.03508 10.38407 29004 ft 411 kts 251°
2026-05-07 12:57 48.02486 10.34410 29388 ft 414 kts 250°
2026-05-07 12:57 48.01454 10.30383 29778 ft 417 kts 250°
2026-05-07 12:57 48.00422 10.26356 30148 ft 420 kts 250°
2026-05-07 12:57 47.99367 10.22255 30516 ft 422 kts 250°
2026-05-07 12:58 47.98328 10.18218 30862 ft 425 kts 250°
2026-05-07 12:58 47.97258 10.14065 31282 ft 425 kts 250°
2026-05-07 12:58 47.96203 10.09981 31643 ft 424 kts 250°
2026-05-07 12:58 47.95158 10.05940 32011 ft 422 kts 250°
2026-05-07 12:59 47.94098 10.01849 32290 ft 421 kts 250°
2026-05-07 12:59 47.93042 9.97785 32560 ft 421 kts 250°
2026-05-07 12:59 47.91991 9.93749 32836 ft 420 kts 250°
2026-05-07 12:59 47.90930 9.89680 33108 ft 419 kts 249°
2026-05-07 13:00 47.89911 9.85779 33377 ft 418 kts 249°
2026-05-07 13:00 47.88851 9.81729 33649 ft 417 kts 249°
2026-05-07 13:00 47.87786 9.77670 33910 ft 415 kts 249°
2026-05-07 13:00 47.86737 9.73678 34162 ft 414 kts 249°
2026-05-07 13:01 47.85703 9.69745 34446 ft 413 kts 249°
2026-05-07 13:01 47.84723 9.65742 34722 ft 412 kts 252°
2026-05-07 13:01 47.83890 9.61692 34996 ft 411 kts 255°
2026-05-07 13:01 47.83205 9.57551 35263 ft 410 kts 258°
2026-05-07 13:02 47.82670 9.53419 35523 ft 409 kts 260°
2026-05-07 13:02 47.82173 9.49293 35775 ft 408 kts 260°
2026-05-07 13:02 47.81673 9.45131 36014 ft 408 kts 260°
2026-05-07 13:02 47.81174 9.40982 36246 ft 407 kts 260°
2026-05-07 13:03 47.80679 9.36890 36451 ft 407 kts 260°
2026-05-07 13:03 47.80193 9.32896 36634 ft 407 kts 259°
2026-05-07 13:03 47.79689 9.28768 36839 ft 407 kts 259°
2026-05-07 13:03 47.79180 9.24608 37053 ft 406 kts 259°
2026-05-07 13:04 47.78680 9.20534 37241 ft 406 kts 259°
2026-05-07 13:04 47.78171 9.16406 37419 ft 406 kts 259°
2026-05-07 13:04 47.77661 9.12276 37594 ft 406 kts 259°
2026-05-07 13:04 47.77150 9.08158 37766 ft 406 kts 259°
2026-05-07 13:05 47.76640 9.04054 37923 ft 406 kts 259°
2026-05-07 13:05 47.76131 8.99973 38085 ft 406 kts 259°
2026-05-07 13:05 47.75617 8.95863 38230 ft 406 kts 259°
2026-05-07 13:05 47.75100 8.91732 38375 ft 406 kts 259°
2026-05-07 13:06 47.74583 8.87623 38494 ft 407 kts 259°
2026-05-07 13:06 47.74060 8.83488 38630 ft 408 kts 259°
2026-05-07 13:06 47.73540 8.79385 38752 ft 409 kts 259°
2026-05-07 13:06 47.73017 8.75268 38874 ft 410 kts 259°
2026-05-07 13:07 47.72488 8.71120 38987 ft 411 kts 259°
2026-05-07 13:07 47.71956 8.66958 39004 ft 412 kts 259°
2026-05-07 13:07 47.70889 8.58664 39010 ft 412 kts 259°
2026-05-07 13:08 47.69564 8.50429 39014 ft 411 kts 253°
2026-05-07 13:08 47.67498 8.42525 39016 ft 411 kts 245°
2026-05-07 13:09 47.64728 8.35140 39015 ft 412 kts 238°
2026-05-07 13:09 47.61483 8.28316 39017 ft 413 kts 235°
2026-05-07 13:10 47.58154 8.21460 39016 ft 412 kts 235°
2026-05-07 13:10 47.54803 8.14574 39014 ft 411 kts 235°
2026-05-07 13:11 47.51480 8.07763 39013 ft 411 kts 235°
2026-05-07 13:11 47.48127 8.00906 39014 ft 411 kts 235°
2026-05-07 13:12 47.44789 7.94096 39006 ft 410 kts 235°
2026-05-07 13:12 47.41454 7.87306 39003 ft 411 kts 235°
2026-05-07 13:13 47.38118 7.80534 39006 ft 411 kts 235°
2026-05-07 13:13 47.34764 7.73742 39000 ft 410 kts 235°
2026-05-07 13:14 47.31421 7.66985 39005 ft 411 kts 235°
2026-05-07 13:14 47.28067 7.60230 39007 ft 410 kts 235°
2026-05-07 13:15 47.24707 7.53477 39019 ft 410 kts 235°
2026-05-07 13:15 47.21346 7.46734 39022 ft 410 kts 235°
2026-05-07 13:16 47.17983 7.40009 39018 ft 409 kts 235°
2026-05-07 13:16 47.14508 7.33372 39015 ft 410 kts 232°
2026-05-07 13:17 47.10966 7.26832 39009 ft 410 kts 232°
2026-05-07 13:17 47.07444 7.20350 39005 ft 410 kts 232°
2026-05-07 13:18 47.03896 7.13835 39002 ft 411 kts 232°
2026-05-07 13:18 47.00342 7.07325 39003 ft 410 kts 232°
2026-05-07 13:19 46.96789 7.00835 38994 ft 409 kts 232°
2026-05-07 13:19 46.93221 6.94336 38999 ft 409 kts 232°
2026-05-07 13:20 46.89681 6.87902 39012 ft 409 kts 232°
2026-05-07 13:20 46.86120 6.81458 39007 ft 409 kts 233°
2026-05-07 13:21 46.82543 6.74998 39006 ft 408 kts 233°
2026-05-07 13:21 46.78980 6.68575 39004 ft 408 kts 232°
2026-05-07 13:22 46.75421 6.62178 38999 ft 408 kts 233°
2026-05-07 13:22 46.71848 6.55771 38985 ft 408 kts 232°
2026-05-07 13:23 46.68271 6.49370 38983 ft 408 kts 232°
2026-05-07 13:23 46.64699 6.42996 38984 ft 408 kts 233°
2026-05-07 13:24 46.61123 6.36627 38979 ft 408 kts 233°
2026-05-07 13:24 46.57589 6.30347 38987 ft 408 kts 232°
2026-05-07 13:25 46.54010 6.24000 38979 ft 407 kts 232°
2026-05-07 13:25 46.50435 6.17676 38986 ft 407 kts 232°
2026-05-07 13:26 46.46852 6.11354 38973 ft 407 kts 232°
2026-05-07 13:26 46.43259 6.05028 38975 ft 407 kts 232°
2026-05-07 13:27 46.39684 5.98748 38976 ft 407 kts 232°
2026-05-07 13:27 46.36084 5.92437 38976 ft 406 kts 232°
2026-05-07 13:28 46.32499 5.86168 38977 ft 406 kts 232°
2026-05-07 13:28 46.28900 5.79887 38973 ft 406 kts 232°
2026-05-07 13:29 46.25319 5.73656 38973 ft 405 kts 232°
2026-05-07 13:29 46.21730 5.67421 38974 ft 405 kts 232°
2026-05-07 13:30 46.18123 5.61173 38963 ft 405 kts 232°
2026-05-07 13:30 46.14592 5.54908 38971 ft 405 kts 235°
2026-05-07 13:31 46.11368 5.48278 38974 ft 405 kts 237°
2026-05-07 13:31 46.08169 5.41611 38972 ft 405 kts 237°
2026-05-07 13:32 46.04993 5.35008 38968 ft 404 kts 237°
2026-05-07 13:32 46.01847 5.28484 38973 ft 404 kts 236°
2026-05-07 13:33 45.98678 5.21925 38974 ft 404 kts 236°
2026-05-07 13:33 45.95478 5.15319 38972 ft 405 kts 236°
2026-05-07 13:34 45.90642 5.05363 38973 ft 404 kts 236°
2026-05-07 13:35 45.87425 4.98757 38974 ft 404 kts 236°
2026-05-07 13:35 45.84205 4.92163 38973 ft 403 kts 236°
2026-05-07 13:36 45.80999 4.85612 38972 ft 403 kts 236°
2026-05-07 13:36 45.77793 4.79077 38974 ft 403 kts 236°
2026-05-07 13:37 45.74574 4.72529 38968 ft 403 kts 236°
2026-05-07 13:37 45.71345 4.65979 38968 ft 403 kts 236°
2026-05-07 13:38 45.68113 4.59435 38971 ft 404 kts 236°
2026-05-07 13:38 45.64900 4.52940 38967 ft 404 kts 236°
2026-05-07 13:39 45.61671 4.46431 38981 ft 403 kts 236°
2026-05-07 13:39 45.58428 4.39907 38987 ft 402 kts 236°
2026-05-07 13:40 45.55329 4.33690 38990 ft 402 kts 235°
2026-05-07 13:40 45.52094 4.27214 38992 ft 402 kts 235°
2026-05-07 13:41 45.48844 4.20722 38993 ft 402 kts 235°
2026-05-07 13:41 45.45626 4.14313 38984 ft 402 kts 235°
2026-05-07 13:42 45.42364 4.07832 38979 ft 402 kts 235°
2026-05-07 13:42 45.39127 4.01414 38979 ft 402 kts 235°
2026-05-07 13:43 45.35852 3.94942 39001 ft 402 kts 235°
2026-05-07 13:43 45.32597 3.88519 38975 ft 401 kts 235°
2026-05-07 13:44 45.29347 3.82121 38988 ft 401 kts 235°
2026-05-07 13:44 45.26097 3.75737 38972 ft 400 kts 235°
2026-05-07 13:45 45.22900 3.69299 38979 ft 400 kts 236°
2026-05-07 13:45 45.19736 3.62850 38983 ft 401 kts 236°
2026-05-07 13:46 45.16556 3.56395 38980 ft 401 kts 236°
2026-05-07 13:46 45.13376 3.49964 38978 ft 401 kts 236°
2026-05-07 13:47 45.10184 3.43525 38975 ft 401 kts 236°
2026-05-07 13:47 45.06988 3.37093 38969 ft 401 kts 236°
2026-05-07 13:48 45.03909 3.30911 38961 ft 400 kts 235°
2026-05-07 13:48 45.00716 3.24514 38965 ft 399 kts 235°
2026-05-07 13:49 44.97518 3.18124 38958 ft 400 kts 235°
2026-05-07 13:49 44.94331 3.11768 38962 ft 400 kts 235°
2026-05-07 13:50 44.91108 3.05353 38958 ft 401 kts 235°
2026-05-07 13:50 44.88004 2.99190 38957 ft 401 kts 235°
2026-05-07 13:51 44.84771 2.92744 38955 ft 401 kts 236°
2026-05-07 13:51 44.81744 2.86177 38956 ft 401 kts 237°
2026-05-07 13:52 44.78731 2.79639 38953 ft 400 kts 237°
2026-05-07 13:52 44.75703 2.73082 38954 ft 400 kts 237°
2026-05-07 13:53 44.72684 2.66558 38960 ft 400 kts 237°
2026-05-07 13:53 44.69651 2.60017 38957 ft 400 kts 237°
2026-05-07 13:54 44.66616 2.53488 38956 ft 401 kts 237°
2026-05-07 13:54 44.63571 2.46952 38956 ft 401 kts 237°
2026-05-07 13:55 44.60520 2.40420 38957 ft 401 kts 237°
2026-05-07 13:55 44.57544 2.34063 38955 ft 401 kts 236°
2026-05-07 13:56 44.54475 2.27518 38955 ft 402 kts 236°
2026-05-07 13:56 44.51400 2.20977 38952 ft 402 kts 236°
2026-05-07 13:57 44.48338 2.14478 38950 ft 402 kts 236°
2026-05-07 13:57 44.45274 2.07993 38950 ft 401 kts 236°
2026-05-07 13:58 44.42206 2.01511 38949 ft 401 kts 236°
2026-05-07 13:58 44.39115 1.94997 38947 ft 401 kts 236°
2026-05-07 13:59 44.36042 1.88536 38942 ft 402 kts 236°
2026-05-07 13:59 44.32939 1.82027 38939 ft 402 kts 236°
2026-05-07 14:00 44.29845 1.75547 38934 ft 402 kts 236°
2026-05-07 14:00 44.26816 1.69014 38938 ft 403 kts 237°
2026-05-07 14:01 44.23823 1.62468 38935 ft 403 kts 237°
2026-05-07 14:01 44.20803 1.55894 38928 ft 403 kts 237°
2026-05-07 14:02 44.17787 1.49353 38930 ft 403 kts 237°
2026-05-07 14:02 44.14762 1.42810 38933 ft 403 kts 237°
2026-05-07 14:03 44.11729 1.36266 38921 ft 403 kts 237°
2026-05-07 14:03 44.08796 1.29954 38928 ft 403 kts 236°
2026-05-07 14:04 44.05757 1.23426 38918 ft 403 kts 236°
2026-05-07 14:04 44.02716 1.16910 38926 ft 404 kts 236°
2026-05-07 14:05 43.99666 1.10389 38920 ft 404 kts 236°
2026-05-07 14:05 43.96612 1.03874 38925 ft 403 kts 236°
2026-05-07 14:06 43.93558 0.97374 38922 ft 403 kts 236°
2026-05-07 14:06 43.90484 0.90866 38922 ft 402 kts 234°
2026-05-07 14:07 43.87178 0.84817 38932 ft 402 kts 229°
2026-05-07 14:07 43.83478 0.79048 38922 ft 403 kts 228°
2026-05-07 14:08 43.79745 0.73272 38920 ft 403 kts 228°
2026-05-07 14:08 43.76012 0.67512 38925 ft 403 kts 228°
2026-05-07 14:09 43.72283 0.61770 38928 ft 402 kts 228°
2026-05-07 14:09 43.68538 0.56017 38927 ft 402 kts 228°
2026-05-07 14:10 43.64804 0.50290 38928 ft 402 kts 228°
2026-05-07 14:10 43.61045 0.44539 38926 ft 402 kts 228°
2026-05-07 14:11 43.57324 0.38860 38927 ft 402 kts 228°
2026-05-07 14:11 43.53739 0.33151 38930 ft 402 kts 231°
2026-05-07 14:12 43.50521 0.26855 38930 ft 403 kts 237°
2026-05-07 14:12 43.47807 0.20156 38926 ft 404 kts 241°
2026-05-07 14:13 43.45217 0.13306 38928 ft 404 kts 241°
2026-05-07 14:13 43.42635 0.06488 38921 ft 404 kts 241°
2026-05-07 14:14 43.40037 -0.00352 38917 ft 404 kts 240°
2026-05-07 14:14 43.37437 -0.07184 38918 ft 405 kts 240°
2026-05-07 14:15 43.34845 -0.13980 38921 ft 404 kts 240°
2026-05-07 14:15 43.32230 -0.20814 38925 ft 405 kts 241°
2026-05-07 14:16 43.29609 -0.27649 38924 ft 405 kts 240°
2026-05-07 14:16 43.27004 -0.34428 38921 ft 405 kts 241°
2026-05-07 14:17 43.24369 -0.41269 38922 ft 405 kts 241°
2026-05-07 14:17 43.21761 -0.48026 38924 ft 404 kts 241°
2026-05-07 14:18 43.19136 -0.54806 38926 ft 405 kts 241°
2026-05-07 14:18 43.16484 -0.61640 38936 ft 405 kts 241°
2026-05-07 14:19 43.13880 -0.68335 38933 ft 405 kts 240°
2026-05-07 14:19 43.11245 -0.75096 38929 ft 406 kts 240°
2026-05-07 14:20 43.08605 -0.81850 38924 ft 405 kts 240°
2026-05-07 14:20 43.05957 -0.88610 38920 ft 404 kts 240°
2026-05-07 14:21 43.03301 -0.95375 38926 ft 405 kts 240°
2026-05-07 14:21 43.00638 -1.02134 38783 ft 406 kts 240°
2026-05-07 14:21 42.99301 -1.05532 38394 ft 405 kts 240°
2026-05-07 14:22 42.97982 -1.08870 37896 ft 405 kts 240°
2026-05-07 14:22 42.96636 -1.12263 37474 ft 406 kts 240°
2026-05-07 14:22 42.95290 -1.15650 36883 ft 409 kts 239°
2026-05-07 14:22 42.93935 -1.19052 36251 ft 412 kts 239°
2026-05-07 14:23 42.92573 -1.22471 35622 ft 414 kts 239°
2026-05-07 14:23 42.91215 -1.25873 34987 ft 416 kts 239°
2026-05-07 14:23 42.89817 -1.29370 34330 ft 418 kts 239°
2026-05-07 14:23 42.88447 -1.32792 33647 ft 418 kts 239°
2026-05-07 14:24 42.87053 -1.36270 32953 ft 419 kts 239°
2026-05-07 14:24 42.85654 -1.39756 32251 ft 420 kts 239°
2026-05-07 14:24 42.84265 -1.43213 31533 ft 420 kts 239°
2026-05-07 14:24 42.82858 -1.46714 30798 ft 421 kts 239°
2026-05-07 14:25 42.81468 -1.50166 30029 ft 422 kts 239°
2026-05-07 14:25 42.80048 -1.53687 29275 ft 421 kts 239°
2026-05-07 14:25 42.78672 -1.57098 28785 ft 414 kts 239°
2026-05-07 14:25 42.77294 -1.60513 28281 ft 409 kts 239°
2026-05-07 14:26 42.75945 -1.63853 27777 ft 404 kts 240°
2026-05-07 14:26 42.74958 -1.67226 27255 ft 404 kts 255°
2026-05-07 14:26 42.74806 -1.71003 26749 ft 406 kts 273°
2026-05-07 14:26 42.75544 -1.74696 26245 ft 408 kts 291°
2026-05-07 14:27 42.76972 -1.77998 25766 ft 408 kts 299°
2026-05-07 14:27 42.78519 -1.81218 25271 ft 404 kts 300°
2026-05-07 14:27 42.80047 -1.84403 24772 ft 401 kts 300°
2026-05-07 14:27 42.81540 -1.87550 24294 ft 397 kts 299°
2026-05-07 14:28 42.83019 -1.90691 23811 ft 394 kts 299°
2026-05-07 14:28 42.84490 -1.93832 23327 ft 391 kts 299°
2026-05-07 14:28 42.85929 -1.96902 22853 ft 388 kts 299°
2026-05-07 14:28 42.87376 -1.99988 22377 ft 385 kts 299°
2026-05-07 14:29 42.88792 -2.03013 21906 ft 382 kts 299°
2026-05-07 14:29 42.90219 -2.06072 21427 ft 379 kts 299°
2026-05-07 14:29 42.91613 -2.09062 20964 ft 376 kts 299°
2026-05-07 14:29 42.93000 -2.12043 20498 ft 373 kts 299°
2026-05-07 14:30 42.94396 -2.15046 20024 ft 370 kts 300°
2026-05-07 14:30 42.95750 -2.17961 19570 ft 368 kts 300°
2026-05-07 14:30 42.97115 -2.20902 19114 ft 365 kts 300°
2026-05-07 14:30 42.98457 -2.23795 18658 ft 362 kts 300°
2026-05-07 14:31 42.99809 -2.26677 18201 ft 359 kts 300°
2026-05-07 14:31 43.01144 -2.29511 17775 ft 357 kts 300°
2026-05-07 14:31 43.02491 -2.32371 17324 ft 355 kts 300°
2026-05-07 14:31 43.03820 -2.35199 16871 ft 353 kts 300°
2026-05-07 14:32 43.05124 -2.37979 16404 ft 352 kts 300°
2026-05-07 14:32 43.06438 -2.40785 15958 ft 350 kts 301°
2026-05-07 14:32 43.07747 -2.43584 15505 ft 348 kts 301°
2026-05-07 14:32 43.09027 -2.46326 15046 ft 346 kts 301°
2026-05-07 14:33 43.10233 -2.48908 14631 ft 344 kts 301°
2026-05-07 14:33 43.11521 -2.51668 14187 ft 342 kts 301°
2026-05-07 14:33 43.12787 -2.54386 13733 ft 339 kts 301°
2026-05-07 14:33 43.14039 -2.57075 13281 ft 337 kts 301°
2026-05-07 14:34 43.15292 -2.59769 12844 ft 334 kts 301°
2026-05-07 14:34 43.16537 -2.62453 12397 ft 332 kts 301°
2026-05-07 14:34 43.17723 -2.65005 11964 ft 330 kts 301°
2026-05-07 14:34 43.18944 -2.67637 11546 ft 318 kts 300°
2026-05-07 14:35 43.20093 -2.70117 11126 ft 302 kts 300°
2026-05-07 14:35 43.21196 -2.72498 10724 ft 287 kts 300°
2026-05-07 14:35 43.22247 -2.74776 10349 ft 283 kts 300°
2026-05-07 14:35 43.23270 -2.76991 10206 ft 271 kts 300°
2026-05-07 14:36 43.24257 -2.79128 10092 ft 260 kts 300°
2026-05-07 14:36 43.25202 -2.81176 9971 ft 250 kts 300°
2026-05-07 14:36 43.26117 -2.83163 9807 ft 242 kts 300°
2026-05-07 14:36 43.27014 -2.85116 9493 ft 242 kts 300°
2026-05-07 14:37 43.27894 -2.87030 9193 ft 241 kts 300°
2026-05-07 14:37 43.29680 -2.90887 8600 ft 239 kts 303°
2026-05-07 14:37 43.30699 -2.92684 8305 ft 238 kts 310°
2026-05-07 14:38 43.31873 -2.94286 8030 ft 238 kts 317°
2026-05-07 14:38 43.33111 -2.95773 7746 ft 238 kts 318°
2026-05-07 14:38 43.34371 -2.97261 7458 ft 238 kts 318°
2026-05-07 14:38 43.35617 -2.98733 7169 ft 237 kts 318°
2026-05-07 14:39 43.36856 -3.00204 6883 ft 236 kts 318°
2026-05-07 14:39 43.38105 -3.01692 6594 ft 236 kts 319°
2026-05-07 14:39 43.39341 -3.03167 6310 ft 235 kts 319°
2026-05-07 14:39 43.40571 -3.04638 6026 ft 235 kts 319°
2026-05-07 14:40 43.41801 -3.06109 5745 ft 235 kts 319°
2026-05-07 14:40 43.43028 -3.07578 5460 ft 234 kts 319°
2026-05-07 14:40 43.44252 -3.09043 5184 ft 234 kts 319°
2026-05-07 14:40 43.45417 -3.10571 4885 ft 234 kts 305°
2026-05-07 14:41 43.46056 -3.12609 4568 ft 231 kts 276°
2026-05-07 14:41 43.45962 -3.14740 4263 ft 219 kts 250°
2026-05-07 14:41 43.45276 -3.16510 3989 ft 207 kts 226°
2026-05-07 14:41 43.44174 -3.17727 3758 ft 199 kts 203°
2026-05-07 14:42 43.42890 -3.18320 3544 ft 195 kts 191°
2026-05-07 14:42 43.41583 -3.18588 3519 ft 179 kts 173°
2026-05-07 14:42 43.40471 -3.18045 3516 ft 171 kts 142°
2026-05-07 14:42 43.39664 -3.16863 3501 ft 169 kts 126°
2026-05-07 14:43 43.39051 -3.15489 3497 ft 169 kts 118°
2026-05-07 14:43 43.38524 -3.14039 3493 ft 169 kts 116°
2026-05-07 14:43 43.38010 -3.12580 3351 ft 169 kts 116°
2026-05-07 14:43 43.37492 -3.11134 3116 ft 168 kts 117°
2026-05-07 14:44 43.36972 -3.09705 2877 ft 168 kts 117°
2026-05-07 14:44 43.36452 -3.08291 2652 ft 167 kts 116°
2026-05-07 14:44 43.35927 -3.06870 2431 ft 166 kts 117°
2026-05-07 14:44 43.35403 -3.05452 2210 ft 166 kts 116°
2026-05-07 14:45 43.34884 -3.04047 1994 ft 163 kts 116°
2026-05-07 14:45 43.34385 -3.02691 1760 ft 153 kts 116°
2026-05-07 14:45 43.33929 -3.01458 1580 ft 139 kts 115°
2026-05-07 14:45 43.33513 -3.00329 1375 ft 126 kts 115°
2026-05-07 14:46 43.33120 -2.99262 1215 ft 124 kts 115°
2026-05-07 14:46 43.32735 -2.98212 1066 ft 124 kts 116°
2026-05-07 14:46 43.32334 -2.97161 896 ft 125 kts 115°
2026-05-07 14:46 43.31972 -2.96090 734 ft 123 kts 112°
2026-05-07 14:47 43.31575 -2.95055 558 ft 124 kts 116°
2026-05-07 14:47 43.31186 -2.94005 413 ft 124 kts 113°
2026-05-07 14:47 43.30799 -2.92938 233 ft 124 kts 115°
2026-05-07 14:47 43.30432 -2.91926 148 ft 110 kts 117°
2026-05-07 14:48 43.30155 -2.91182 154 ft 40 kts 118°
2026-05-07 14:48 43.30093 -2.90878 157 ft 18 kts 95°
2026-05-07 14:48 43.30090 -2.90843 157 ft 1 kts 98°
2026-05-07 14:48 43.30088 -2.90825 157 ft 2 kts 98°
2026-05-07 14:49 43.30085 -2.90792 157 ft 4 kts 99°
2026-05-07 14:49 43.30080 -2.90749 157 ft 4 kts 98°
2026-05-07 14:49 43.30076 -2.90701 158 ft 5 kts 96°
2026-05-07 14:49 43.30081 -2.90651 158 ft 5 kts 61°
2026-05-07 14:50 43.30107 -2.90618 158 ft 5 kts 31°
2026-05-07 14:50 43.30137 -2.90593 159 ft 5 kts 31°
2026-05-07 14:50 43.30170 -2.90565 159 ft 5 kts 31°
2026-05-07 14:50 43.30199 -2.90543 160 ft 4 kts 26°
2026-05-07 14:51 43.30225 -2.90532 161 ft 3 kts
2026-05-07 14:51 43.30251 -2.90540 162 ft 4 kts 337°
2026-05-07 14:51 43.30279 -2.90561 162 ft 5 kts 328°
2026-05-07 14:51 43.30310 -2.90588 164 ft 4 kts 326°
2026-05-07 14:52 43.30336 -2.90610 164 ft 3 kts 340°
2026-05-07 14:52 43.30362 -2.90606 165 ft 3 kts 20°
2026-05-07 14:52 43.30383 -2.90594 165 ft 2 kts 24°
2026-05-07 14:52 43.30399 -2.90584 166 ft 2 kts 26°
2026-05-07 14:53 43.30405 -2.90579 166 ft 0 kts 30°